This demonstration page uses our WeatherBlox Daily Observations layout. Learn more.

Left ArrowRight Arrow

Hourly Observations for July 22, 2015

Temp ( °F °C ) Dew Point ( °F °C ) Humidity (%) Winds ( mph kmh ) Pressure ( in mb ) Visibility ( mi km ) Precip ( " mm )
12:53 am 00:53 Clear 67 19.4 58 14.4 73 73 NNW 5 7 29.92 1013 10 16 N/A
1:53 am 01:53 Clear 65 18.3 56 13.3 73 73 NNW 5 7 29.93 1014 10 16 N/A
2:53 am 02:53 Clear 61 16.1 57 13.9 87 87 NNW 3 6 29.94 1014 10 16 N/A
3:53 am 03:53 Clear 57 13.9 56 13.3 96 96 N N/A 29.96 1014 10 16 N/A
4:53 am 04:53 Clear 57 13.9 55 12.8 93 93 N N/A 29.96 1015 10 16 N/A
5:53 am 05:53 Clear 56 13.3 54 12.2 93 93 N N/A 29.97 1015 10 16 N/A
6:53 am 06:53 Sunny 56 13.3 54 12.2 93 93 N N/A 29.98 1015 10 16 N/A
7:53 am 07:53 Sunny 62 16.7 58 14.4 86 86 N N/A 29.99 1016 10 16 N/A
8:53 am 08:53 Sunny 67 19.4 56 13.3 68 68 N N/A 29.99 1016 10 16 N/A
9:53 am 09:53 Sunny 72 22.2 58 14.4 61 61 N 5 7 29.99 1016 10 16 N/A
10:53 am 10:53 Sunny 74 23.3 57 13.9 56 56 NNW 6 9 29.99 1016 10 16 N/A
11:53 am 11:53 Sunny 76 24.4 56 13.3 50 50 N 8 13 30.00 1016 10 16 N/A
12:53 pm 12:53 Sunny 78 25.6 55 12.8 45 45 VRB 6 9 30.00 1016 10 16 N/A
1:53 pm 13:53 Sunny 78 25.6 56 13.3 47 47 N 3 6 29.99 1016 10 16 N/A
2:53 pm 14:53 Sunny 80 26.7 56 13.3 44 44 VRB 3 6 29.98 1015 10 16 N/A
3:53 pm 15:53 Sunny 80 26.7 56 13.3 44 44 VRB 6 9 29.97 1015 10 16 N/A
4:53 pm 16:53 Sunny 81 27.2 57 13.9 44 44 NW 8 13 29.96 1015 10 16 N/A
5:53 pm 17:53 Sunny 80 26.7 57 13.9 45 45 N 5 7 29.96 1014 10 16 N/A
6:53 pm 18:53 Sunny 80 26.7 57 13.9 45 45 NNW 7 11 29.95 1014 10 16 N/A
7:53 pm 19:53 Sunny 77 25 58 14.4 52 52 N 7 11 29.95 1014 10 16 N/A
8:53 pm 20:53 Sunny 71 21.7 62 16.7 73 73 N N/A 29.95 1014 10 16 N/A
9:53 pm 21:53 Clear 65 18.3 61 16.1 87 87 N 5 7 29.98 1015 10 16 N/A
10:53 pm 22:53 Clear 63 17.2 60 15.6 90 90 N N/A 29.99 1016 10 16 N/A
11:53 pm 23:53 Clear 62 16.7 60 15.6 93 93 N N/A 30.00 1016 10 16 N/A

Powered by AerisWeather